Location: ????? ???????
(25.7275°N, 32.5929°E)
Time: 11:33:41
(UTC+00:00)

APEX - Pass Details

Date: 02 March 2021
Orbit: 332 x 1081 km, 69.9° (Epoch: 15 April)

Event Time Altitude Azimuth Distance (km) Brightness Sun altitude
Rises 17:03:36 0° 339° (NNW) 2,105 6.6 -16.9°
Reaches altitude 10° 17:05:31 10° 338° (NNW) 1,264 5.5 -17.4°
Maximum altitude 17:08:12 80° 252° (WSW) 350 2.3 -18.0°
Enters shadow 17:08:50 49° 173° (S) 456 2.8 -18.1°
